カタログに戻る

STARLINK-3628

運用中通信VLEO
NORAD 51783·PAYLOAD·🇺🇸 United States

打ち上げ Feb 25, 2022 から Vandenberg Space Force Base

Loading…

次のパス (今後24時間)

TLE

最新Source: CelesTrak SupGP

元期: Sep 15, 2026, 01:48 UTC

1 51783C 22017R   26258.07548611 -.00021096  00000+0 -67849-3 0  2585
2 51783  53.1568 194.5769 0001416  92.8179  25.1414 15.31708309    18

AllMySatでSTARLINK-3628をリアルタイム追跡

Download on the App Store